NORTHEAST SUFFOLK  -  Winter Weather Advisory Winter Weather Advisory        NORTHERN NASSAU  -  Winter Weather Advisory Winter Weather Advisory        NORTHWEST SUFFOLK  -  Winter Weather Advisory Winter Weather Advisory        SOUTHEAST SUFFOLK  -  Winter Weather Advisory Winter Weather Advisory        SOUTHERN NASSAU  -  Winter Weather Advisory Winter Weather Advisory        SOUTHWEST SUFFOLK  -  Winter Weather Advisory Winter Weather Advisory      

Active alerts

Northern Nassau
  Details for Northern Nassau Winter Weather Advisory
Southern Nassau
  Details for Southern Nassau Winter Weather Advisory
Northwest Suffolk
  Details for Northwest Suffolk Winter Weather Advisory
Southwest Suffolk
  Details for Southwest Suffolk Winter Weather Advisory
Northeast Suffolk
  Details for Northeast Suffolk Winter Weather Advisory
Southeast Suffolk
  Details for Southeast Suffolk Winter Weather Advisory


WXM80 ListenWXM80 Stop

You find our weather info also at:

UK Metoffice

WeatherCloud

Weather Underground

Northeastern Weather Network

AWEKAS

Citizen Weather Observer Program (CWOP)

HAMweather, WeatherForYou, PWS Weather


Weather Underground History page Text

Daily Summary for July 24, 2016 Units:  English    Metric   Both
« Previous Day
Next Day »
Daily Weekly Monthly Yearly Custom
  High: Low: Average:
Temperature: 95.4 °F 67.9 °F 80.7 °F
Dew Point: 70.6 °F 62.5 °F 66.5 °F
Humidity: 89 % 37 % 64 %
Wind Speed: 4.5 mph 0.0 mph 1 mph
Wind Gust: 9.0 mph - -
Wind:- - SSW
Pressure: 29.96 in 29.86 in -
Precipitation: 0.00 in    
Historical Graphs
 
 
Tabular Data for July 24, 2016
Time Temperature Dew Point Pressure Wind Wind Speed Wind Gust Humidity Rainfall Rate (Hourly)
00:02 78.2 °F 65.0 °F 29.86 in NNW 0.1 mph 1.2 mph 64 % 0.00 in
00:07 78.0 °F 65.3 °F 29.86 in Calm     65 % 0.00 in
00:12 77.8 °F 64.6 °F 29.86 in Calm     64 % 0.00 in
00:17 77.6 °F 64.0 °F 29.86 in NW 0.2 mph 1.2 mph 63 % 0.00 in
00:22 77.4 °F 63.8 °F 29.86 in Calm     63 % 0.00 in
00:27 77.2 °F 63.6 °F 29.86 in Calm     63 % 0.00 in
00:32 77.1 °F 64.0 °F 29.86 in Calm     64 % 0.00 in
00:37 76.9 °F 64.2 °F 29.87 in Calm     65 % 0.00 in
00:43 76.7 °F 64.0 °F 29.87 in West 1.6 mph 2.0 mph 65 % 0.00 in
00:48 76.5 °F 63.9 °F 29.87 in Calm     65 % 0.00 in
00:53 76.3 °F 63.7 °F 29.87 in WNW 0.5 mph 2.3 mph 65 % 0.00 in
00:58 76.0 °F 63.4 °F 29.88 in NW 1.1 mph 3.5 mph 65 % 0.00 in
01:03 75.8 °F 62.8 °F 29.88 in NW 1.5 mph 3.5 mph 64 % 0.00 in
01:08 75.6 °F 62.6 °F 29.88 in Calm   1.2 mph 64 % 0.00 in
01:13 75.5 °F 62.5 °F 29.89 in Calm     64 % 0.00 in
01:18 75.3 °F 62.7 °F 29.89 in NW 0.3 mph 1.2 mph 65 % 0.00 in
01:23 75.3 °F 62.7 °F 29.89 in Calm     65 % 0.00 in
01:28 75.2 °F 62.6 °F 29.89 in Calm     65 % 0.00 in
01:34 75.1 °F 63.0 °F 29.89 in Calm     66 % 0.00 in
01:39 74.9 °F 62.8 °F 29.89 in Calm     66 % 0.00 in
01:44 74.8 °F 63.1 °F 29.89 in NW 0.3 mph 1.2 mph 67 % 0.00 in
01:49 74.7 °F 63.0 °F 29.89 in Calm     67 % 0.00 in
01:54 74.5 °F 63.7 °F 29.89 in NW 0.2 mph 1.2 mph 69 % 0.00 in
01:59 74.3 °F 63.5 °F 29.89 in Calm     69 % 0.00 in
02:04 74.1 °F 63.3 °F 29.89 in NW 0.1 mph 1.2 mph 69 % 0.00 in
02:09 73.9 °F 63.5 °F 29.90 in Calm   1.2 mph 70 % 0.00 in
02:14 73.8 °F 63.4 °F 29.90 in NW 0.2 mph 1.0 mph 70 % 0.00 in
02:19 73.6 °F 63.6 °F 29.90 in NW 0.1 mph 1.0 mph 71 % 0.00 in
02:25 73.4 °F 63.4 °F 29.90 in Calm     71 % 0.00 in
02:30 73.2 °F 63.2 °F 29.90 in Calm     71 % 0.00 in
02:35 73.0 °F 63.8 °F 29.90 in Calm     73 % 0.00 in
02:40 72.7 °F 63.5 °F 29.90 in Calm     73 % 0.00 in
02:45 72.5 °F 63.7 °F 29.90 in Calm     74 % 0.00 in
02:50 72.3 °F 63.2 °F 29.90 in Calm     73 % 0.00 in
02:55 72.1 °F 63.4 °F 29.90 in Calm     74 % 0.00 in
03:00 71.9 °F 63.2 °F 29.91 in Calm     74 % 0.00 in
03:05 71.8 °F 63.4 °F 29.91 in Calm     75 % 0.00 in
03:10 71.6 °F 63.3 °F 29.91 in Calm     75 % 0.00 in
03:16 71.4 °F 63.1 °F 29.91 in NW 0.1 mph 1.2 mph 75 % 0.00 in
03:21 71.3 °F 62.9 °F 29.91 in Calm   2.0 mph 75 % 0.00 in
03:26 71.1 °F 63.1 °F 29.90 in Calm   1.0 mph 76 % 0.00 in
03:31 71.0 °F 63.1 °F 29.90 in NW 0.7 mph 1.2 mph 76 % 0.00 in
03:36 70.8 °F 62.9 °F 29.90 in Calm     76 % 0.00 in
03:41 70.7 °F 62.8 °F 29.91 in Calm     76 % 0.00 in
03:46 70.6 °F 62.7 °F 29.91 in Calm     76 % 0.00 in
03:51 70.5 °F 62.9 °F 29.91 in Calm   1.0 mph 77 % 0.00 in
03:56 70.4 °F 62.8 °F 29.91 in Calm   1.0 mph 77 % 0.00 in
04:01 70.3 °F 63.1 °F 29.90 in Calm     78 % 0.00 in
04:06 70.2 °F 63.0 °F 29.90 in Calm     78 % 0.00 in
04:11 70.1 °F 62.9 °F 29.90 in Calm   1.0 mph 78 % 0.00 in
04:16 70.0 °F 62.8 °F 29.90 in Calm     78 % 0.00 in
04:21 69.9 °F 62.7 °F 29.90 in Calm     78 % 0.00 in
04:26 69.8 °F 62.6 °F 29.90 in Calm   1.0 mph 78 % 0.00 in
04:31 69.7 °F 62.9 °F 29.90 in Calm     79 % 0.00 in
04:36 69.6 °F 62.8 °F 29.90 in Calm   1.0 mph 79 % 0.00 in
04:41 69.4 °F 63.0 °F 29.90 in Calm     80 % 0.00 in
04:46 69.3 °F 62.9 °F 29.91 in Calm     80 % 0.00 in
04:50 69.2 °F 62.8 °F 29.90 in Calm     80 % 0.00 in
05:01 68.9 °F 62.8 °F 29.91 in NW 0.4 mph 1.2 mph 81 % 0.00 in
05:06 68.8 °F 63.1 °F 29.91 in Calm     82 % 0.00 in
05:11 68.7 °F 63.0 °F 29.91 in Calm   1.2 mph 82 % 0.00 in
05:16 68.6 °F 62.9 °F 29.91 in Calm     82 % 0.00 in
05:26 68.3 °F 62.9 °F 29.91 in Calm     83 % 0.00 in
05:36 68.1 °F 63.1 °F 29.92 in Calm     84 % 0.00 in
05:41 68.1 °F 63.1 °F 29.92 in NW 0.8 mph 2.3 mph 84 % 0.00 in
05:46 68.0 °F 63.3 °F 29.92 in NW 0.2 mph 1.2 mph 85 % 0.00 in
05:52 68.0 °F 63.3 °F 29.92 in Calm     85 % 0.00 in
05:57 67.9 °F 63.2 °F 29.93 in Calm   1.2 mph 85 % 0.00 in
06:02 67.9 °F 63.6 °F 29.93 in Calm   1.2 mph 86 % 0.00 in
06:07 67.9 °F 63.6 °F 29.93 in Calm   1.2 mph 86 % 0.00 in
06:12 67.9 °F 63.6 °F 29.93 in Calm     86 % 0.00 in
06:17 67.9 °F 63.9 °F 29.93 in Calm     87 % 0.00 in
06:22 67.9 °F 63.6 °F 29.93 in Calm     86 % 0.00 in
06:27 68.0 °F 63.7 °F 29.93 in Calm     86 % 0.00 in
06:32 68.1 °F 63.8 °F 29.93 in Calm     86 % 0.00 in
06:37 68.2 °F 64.2 °F 29.94 in Calm     87 % 0.00 in
06:43 68.6 °F 65.2 °F 29.93 in NW 0.5 mph 1.2 mph 89 % 0.00 in
06:48 69.0 °F 65.6 °F 29.93 in NW 0.7 mph 1.2 mph 89 % 0.00 in
06:53 69.3 °F 65.6 °F 29.94 in NW 0.5 mph 2.3 mph 88 % 0.00 in
06:58 69.6 °F 65.6 °F 29.94 in NW 0.5 mph 1.2 mph 87 % 0.00 in
07:03 70.1 °F 65.7 °F 29.94 in WNW 0.2 mph 1.2 mph 86 % 0.00 in
07:08 70.7 °F 65.6 °F 29.93 in WNW 0.7 mph 2.3 mph 84 % 0.00 in
07:13 71.3 °F 66.2 °F 29.94 in Calm     84 % 0.00 in
07:18 72.0 °F 66.2 °F 29.94 in West 0.5 mph 3.5 mph 82 % 0.00 in
07:23 72.6 °F 66.8 °F 29.94 in West 1.4 mph 3.5 mph 82 % 0.00 in
07:28 73.2 °F 67.0 °F 29.94 in SW 1.3 mph 3.5 mph 81 % 0.00 in
07:34 73.7 °F 66.8 °F 29.94 in WSW 3.2 mph 3.5 mph 79 % 0.00 in
07:39 74.1 °F 66.4 °F 29.95 in Calm   1.2 mph 77 % 0.00 in
07:44 74.6 °F 67.7 °F 29.95 in North 2.2 mph 3.5 mph 79 % 0.00 in
07:49 74.9 °F 66.1 °F 29.95 in NW 2.9 mph 4.6 mph 74 % 0.00 in
07:54 75.1 °F 66.2 °F 29.95 in West 1.3 mph 4.6 mph 74 % 0.00 in
07:59 75.3 °F 66.4 °F 29.95 in NE 1.5 mph 3.5 mph 74 % 0.00 in
08:04 75.4 °F 66.5 °F 29.95 in NW 0.5 mph 2.3 mph 74 % 0.00 in
08:09 75.5 °F 66.6 °F 29.95 in North 1.4 mph 3.5 mph 74 % 0.00 in
08:14 75.5 °F 66.2 °F 29.95 in WNW 1.5 mph 2.3 mph 73 % 0.00 in
08:19 75.6 °F 66.3 °F 29.95 in NE 1.8 mph 3.0 mph 73 % 0.00 in
08:25 75.6 °F 66.3 °F 29.95 in West 1.1 mph 1.2 mph 73 % 0.00 in
08:30 75.7 °F 66.0 °F 29.95 in North 3.5 mph 5.0 mph 72 % 0.00 in
08:35 75.8 °F 65.7 °F 29.95 in NNW 0.3 mph 3.5 mph 71 % 0.00 in
08:40 75.9 °F 65.8 °F 29.95 in NNW 4.0 mph 5.8 mph 71 % 0.00 in
08:45 76.0 °F 65.5 °F 29.95 in NW 0.8 mph 2.3 mph 70 % 0.00 in
08:50 76.0 °F 65.9 °F 29.95 in North 1.0 mph 2.3 mph 71 % 0.00 in
08:55 76.1 °F 66.0 °F 29.95 in NNE 1.5 mph 3.5 mph 71 % 0.00 in
09:00 76.1 °F 66.0 °F 29.95 in NW 1.3 mph 3.5 mph 71 % 0.00 in
09:10 76.4 °F 66.3 °F 29.95 in North 2.1 mph 3.5 mph 71 % 0.00 in
09:16 76.5 °F 65.6 °F 29.95 in North 1.0 mph 3.0 mph 69 % 0.00 in
09:21 76.7 °F 65.8 °F 29.96 in NNW 2.0 mph 3.0 mph 69 % 0.00 in
09:25 76.8 °F 65.0 °F 29.96 in Calm   2.0 mph 67 % 0.00 in
09:30 76.9 °F 65.1 °F 29.96 in WNW 1.0 mph 3.0 mph 67 % 0.00 in
09:36 77.0 °F 65.2 °F 29.96 in Calm   2.0 mph 67 % 0.00 in
09:41 77.2 °F 65.8 °F 29.96 in WNW 2.0 mph 5.0 mph 68 % 0.00 in
09:45 77.5 °F 65.2 °F 29.96 in WNW 1.0 mph 2.0 mph 66 % 0.00 in
09:51 77.7 °F 65.9 °F 29.96 in NNW 2.0 mph 5.0 mph 67 % 0.00 in
09:56 78.0 °F 64.8 °F 29.95 in Calm   1.0 mph 64 % 0.00 in
10:01 78.6 °F 66.3 °F 29.95 in NNE 0.3 mph 2.3 mph 66 % 0.00 in
10:06 79.2 °F 66.9 °F 29.95 in North 1.4 mph 3.5 mph 66 % 0.00 in
10:11 80.1 °F 68.2 °F 29.96 in North 1.4 mph 3.5 mph 67 % 0.00 in
10:16 80.9 °F 67.1 °F 29.95 in NNW 1.3 mph 3.5 mph 63 % 0.00 in
10:21 81.8 °F 67.5 °F 29.96 in WNW 1.0 mph 3.5 mph 62 % 0.00 in
10:26 82.9 °F 68.1 °F 29.96 in North 0.6 mph 3.0 mph 61 % 0.00 in
10:31 83.7 °F 67.8 °F 29.96 in North 1.4 mph 3.0 mph 59 % 0.00 in
10:36 84.2 °F 67.8 °F 29.96 in NNE 3.0 mph 3.5 mph 58 % 0.00 in
10:41 84.8 °F 67.9 °F 29.96 in NNW 3.0 mph 4.6 mph 57 % 0.00 in
10:46 85.3 °F 67.3 °F 29.96 in North 2.2 mph 3.5 mph 55 % 0.00 in
10:51 85.8 °F 68.3 °F 29.96 in NNE 1.6 mph 3.5 mph 56 % 0.00 in
10:56 86.3 °F 68.8 °F 29.95 in NNW 2.4 mph 3.5 mph 56 % 0.00 in
11:01 87.0 °F 68.9 °F 29.95 in North 1.9 mph 3.0 mph 55 % 0.00 in
11:07 87.8 °F 69.1 °F 29.95 in West 1.5 mph 3.5 mph 54 % 0.00 in
11:12 88.4 °F 69.1 °F 29.95 in WNW 1.3 mph 3.0 mph 53 % 0.00 in
11:17 88.8 °F 68.3 °F 29.95 in Calm   1.2 mph 51 % 0.00 in
11:22 89.3 °F 69.4 °F 29.95 in SSE 0.9 mph 3.5 mph 52 % 0.00 in
11:27 89.2 °F 68.7 °F 29.95 in SE 1.2 mph 2.3 mph 51 % 0.00 in
11:32 89.8 °F 68.1 °F 29.95 in WNW 2.1 mph 5.0 mph 49 % 0.00 in
11:37 90.2 °F 67.2 °F 29.95 in SSW 2.0 mph 4.0 mph 47 % 0.00 in
11:42 90.4 °F 67.4 °F 29.95 in NW 2.2 mph 4.6 mph 47 % 0.00 in
11:47 90.6 °F 67.0 °F 29.95 in SW 1.9 mph 4.6 mph 46 % 0.00 in
11:52 91.0 °F 68.0 °F 29.95 in SW 1.2 mph 3.5 mph 47 % 0.00 in
11:58 91.3 °F 68.2 °F 29.94 in WSW 2.1 mph 8.1 mph 47 % 0.00 in
12:03 91.3 °F 67.6 °F 29.94 in WNW 4.0 mph 7.0 mph 46 % 0.00 in
12:08 91.1 °F 67.4 °F 29.94 in SW 3.5 mph 5.8 mph 46 % 0.00 in
12:13 91.1 °F 66.8 °F 29.94 in WSW 3.4 mph 8.1 mph 45 % 0.00 in
12:18 91.0 °F 67.3 °F 29.94 in SW 3.1 mph 5.8 mph 46 % 0.00 in
12:23 91.2 °F 70.0 °F 29.93 in West 2.4 mph 4.6 mph 50 % 0.00 in
12:28 91.4 °F 69.6 °F 29.93 in WNW 4.0 mph 6.0 mph 49 % 0.00 in
12:33 91.5 °F 67.8 °F 29.93 in West 0.4 mph 5.8 mph 46 % 0.00 in
12:38 91.7 °F 68.0 °F 29.93 in NW 3.0 mph 4.6 mph 46 % 0.00 in
12:44 91.9 °F 70.6 °F 29.93 in North 1.2 mph 3.5 mph 50 % 0.00 in
12:49 91.9 °F 69.4 °F 29.93 in West 2.5 mph 6.0 mph 48 % 0.00 in
12:54 91.7 °F 67.3 °F 29.93 in West 0.7 mph 4.6 mph 45 % 0.00 in
12:59 91.6 °F 67.9 °F 29.93 in WSW 4.5 mph 6.9 mph 46 % 0.00 in
13:04 91.6 °F 67.9 °F 29.93 in SSW 2.7 mph 5.8 mph 46 % 0.00 in
13:09 91.7 °F 68.6 °F 29.94 in West 4.4 mph 6.0 mph 47 % 0.00 in
13:14 91.7 °F 68.0 °F 29.93 in WNW 4.5 mph 6.9 mph 46 % 0.00 in
13:19 92.1 °F 69.6 °F 29.94 in WSW 3.1 mph 4.6 mph 48 % 0.00 in
13:24 92.3 °F 69.2 °F 29.93 in SSW 2.1 mph 3.5 mph 47 % 0.00 in
13:29 92.2 °F 69.1 °F 29.94 in WSW 0.5 mph 3.5 mph 47 % 0.00 in
13:35 92.1 °F 67.7 °F 29.93 in West 1.3 mph 4.6 mph 45 % 0.00 in
13:40 92.2 °F 67.1 °F 29.93 in SW 2.3 mph 5.8 mph 44 % 0.00 in
13:45 92.1 °F 69.0 °F 29.93 in WSW 0.7 mph 3.5 mph 47 % 0.00 in
13:50 92.3 °F 67.9 °F 29.93 in WSW 1.4 mph 4.0 mph 45 % 0.00 in
13:55 92.7 °F 68.2 °F 29.93 in NNE 2.5 mph 4.6 mph 45 % 0.00 in
14:00 93.1 °F 69.3 °F 29.93 in WSW 1.6 mph 3.5 mph 46 % 0.00 in
14:05 93.7 °F 68.5 °F 29.93 in NNE 1.2 mph 2.3 mph 44 % 0.00 in
14:10 94.2 °F 68.3 °F 29.93 in WSW 1.3 mph 3.0 mph 43 % 0.00 in
14:15 94.7 °F 66.6 °F 29.92 in West 1.8 mph 3.0 mph 40 % 0.00 in
14:20 95.4 °F 69.4 °F 29.92 in WNW 0.7 mph 2.0 mph 43 % 0.00 in
14:26 95.4 °F 65.0 °F 29.92 in NW 2.2 mph 4.6 mph 37 % 0.00 in
14:31 95.1 °F 67.0 °F 29.92 in Calm   3.0 mph 40 % 0.00 in
14:36 94.8 °F 68.1 °F 29.92 in Calm   4.0 mph 42 % 0.00 in
14:41 94.6 °F 68.0 °F 29.92 in North 0.3 mph 1.2 mph 42 % 0.00 in
14:46 94.5 °F 69.2 °F 29.92 in Calm   1.0 mph 44 % 0.00 in
14:51 94.5 °F 67.9 °F 29.91 in North 1.0 mph 3.0 mph 42 % 0.00 in
14:56 94.5 °F 68.5 °F 29.91 in NNE 1.1 mph 2.3 mph 43 % 0.00 in
15:01 94.4 °F 67.1 °F 29.91 in Calm   1.2 mph 41 % 0.00 in
15:06 94.6 °F 68.0 °F 29.91 in SE 0.2 mph 1.2 mph 42 % 0.00 in
15:11 94.6 °F 68.6 °F 29.91 in SE 0.7 mph 2.3 mph 43 % 0.00 in
15:16 94.8 °F 66.7 °F 29.90 in ENE 0.2 mph 1.2 mph 40 % 0.00 in
15:21 95.1 °F 65.5 °F 29.91 in NE 2.4 mph 3.5 mph 38 % 0.00 in
15:26 95.1 °F 64.7 °F 29.91 in NE 2.5 mph 3.5 mph 37 % 0.00 in
15:31 95.0 °F 65.4 °F 29.90 in ENE 0.9 mph 3.5 mph 38 % 0.00 in
15:36 95.1 °F 64.7 °F 29.90 in ENE 0.7 mph 2.3 mph 37 % 0.00 in
15:42 95.3 °F 66.4 °F 29.90 in Calm   1.2 mph 39 % 0.00 in
15:47 95.4 °F 65.0 °F 29.90 in ENE 0.7 mph 2.3 mph 37 % 0.00 in
15:52 95.3 °F 65.7 °F 29.90 in ESE 0.4 mph 1.2 mph 38 % 0.00 in
15:57 95.0 °F 66.2 °F 29.90 in ESE 1.0 mph 2.3 mph 39 % 0.00 in
16:02 95.1 °F 68.4 °F 29.90 in SSE 1.5 mph 5.0 mph 42 % 0.00 in
16:07 94.2 °F 68.3 °F 29.90 in South 2.0 mph 3.5 mph 43 % 0.00 in
16:12 93.8 °F 68.6 °F 29.90 in SW 2.9 mph 5.8 mph 44 % 0.00 in
16:17 93.6 °F 68.4 °F 29.90 in SW 1.4 mph 3.5 mph 44 % 0.00 in
16:22 93.3 °F 68.8 °F 29.89 in ENE 0.7 mph 3.5 mph 45 % 0.00 in
16:27 93.0 °F 67.2 °F 29.89 in SE 2.6 mph 4.6 mph 43 % 0.00 in
16:33 92.9 °F 67.8 °F 29.90 in SSW 0.8 mph 4.6 mph 44 % 0.00 in
16:38 92.5 °F 68.1 °F 29.90 in SSW 1.1 mph 3.5 mph 45 % 0.00 in
16:43 92.2 °F 67.8 °F 29.90 in SSW 1.9 mph 3.5 mph 45 % 0.00 in
16:48 92.1 °F 68.3 °F 29.89 in SSW 0.6 mph 3.5 mph 46 % 0.00 in
16:53 92.2 °F 67.8 °F 29.90 in SSW 2.6 mph 3.5 mph 45 % 0.00 in
16:58 92.0 °F 67.6 °F 29.90 in SSW 3.9 mph 5.8 mph 45 % 0.00 in
17:03 91.9 °F 68.2 °F 29.90 in SSE 1.0 mph 3.0 mph 46 % 0.00 in
17:08 91.5 °F 67.8 °F 29.90 in SSW 0.4 mph 1.2 mph 46 % 0.00 in
17:13 90.8 °F 68.4 °F 29.91 in SE 2.7 mph 3.5 mph 48 % 0.00 in
17:18 89.6 °F 67.9 °F 29.91 in SSE 1.3 mph 4.0 mph 49 % 0.00 in
17:24 88.8 °F 67.2 °F 29.91 in South 1.7 mph 3.5 mph 49 % 0.00 in
17:29 88.3 °F 67.3 °F 29.91 in SSW 2.1 mph 4.6 mph 50 % 0.00 in
17:34 87.9 °F 67.5 °F 29.90 in SW 0.3 mph 2.0 mph 51 % 0.00 in
17:39 87.5 °F 68.3 °F 29.91 in SSE 1.4 mph 3.5 mph 53 % 0.00 in
17:44 87.3 °F 67.0 °F 29.90 in SSW 1.4 mph 3.5 mph 51 % 0.00 in
17:49 86.9 °F 66.0 °F 29.90 in SSW 4.0 mph 5.8 mph 50 % 0.00 in
17:54 86.5 °F 65.7 °F 29.90 in SSW 3.1 mph 5.0 mph 50 % 0.00 in
17:59 86.3 °F 66.0 °F 29.90 in SE 2.1 mph 5.0 mph 51 % 0.00 in
18:04 86.0 °F 66.3 °F 29.90 in South 0.8 mph 3.5 mph 52 % 0.00 in
18:09 85.6 °F 66.0 °F 29.90 in South 2.6 mph 5.8 mph 52 % 0.00 in
18:20 85.1 °F 66.6 °F 29.91 in SSW 2.0 mph 4.0 mph 54 % 0.00 in
18:25 85.0 °F 67.0 °F 29.91 in SSE 3.7 mph 6.0 mph 55 % 0.00 in
18:30 84.9 °F 67.5 °F 29.91 in SW 1.7 mph 4.6 mph 56 % 0.00 in
18:35 84.7 °F 66.7 °F 29.91 in South 2.1 mph 5.8 mph 55 % 0.00 in
18:40 84.6 °F 67.2 °F 29.91 in SSW 1.9 mph 3.5 mph 56 % 0.00 in
18:45 84.5 °F 67.1 °F 29.91 in SSE 0.6 mph 3.5 mph 56 % 0.00 in
18:50 84.3 °F 67.4 °F 29.91 in SSE 1.0 mph 3.5 mph 57 % 0.00 in
18:55 84.2 °F 67.3 °F 29.91 in South 1.9 mph 3.5 mph 57 % 0.00 in
19:06 83.8 °F 67.4 °F 29.91 in South 2.0 mph 5.0 mph 58 % 0.00 in
19:11 83.5 °F 67.2 °F 29.91 in South 1.0 mph 3.0 mph 58 % 0.00 in
19:16 83.3 °F 67.5 °F 29.91 in South 1.0 mph 3.0 mph 59 % 0.00 in
19:21 83.0 °F 67.2 °F 29.91 in South 2.0 mph 5.0 mph 59 % 0.00 in
19:26 82.5 °F 67.2 °F 29.91 in SSE 2.0 mph 9.0 mph 60 % 0.00 in
19:31 82.3 °F 67.5 °F 29.91 in SE 1.3 mph 3.0 mph 61 % 0.00 in
19:36 81.9 °F 67.6 °F 29.92 in SSE 1.0 mph 7.0 mph 62 % 0.00 in
19:46 81.3 °F 67.9 °F 29.91 in SSE 1.0 mph 4.0 mph 64 % 0.00 in
19:51 80.9 °F 67.6 °F 29.92 in SSE 1.0 mph 6.0 mph 64 % 0.00 in
19:56 80.7 °F 67.8 °F 29.91 in SSE 1.0 mph 6.0 mph 65 % 0.00 in
20:01 80.5 °F 68.1 °F 29.91 in South 0.4 mph 2.3 mph 66 % 0.00 in
20:06 80.4 °F 68.0 °F 29.92 in SSE 1.0 mph 2.3 mph 66 % 0.00 in
20:11 80.2 °F 68.2 °F 29.92 in SSE 3.5 mph 6.9 mph 67 % 0.00 in
20:16 80.0 °F 68.1 °F 29.92 in SE 0.4 mph 2.0 mph 67 % 0.00 in
20:21 79.9 °F 68.4 °F 29.92 in ESE 2.2 mph 5.0 mph 68 % 0.00 in
20:26 79.7 °F 68.6 °F 29.92 in SSE 1.6 mph 3.5 mph 69 % 0.00 in
20:31 79.5 °F 68.9 °F 29.92 in Calm   3.5 mph 70 % 0.00 in
20:36 79.4 °F 68.8 °F 29.92 in SSE 1.7 mph 4.6 mph 70 % 0.00 in
20:41 79.2 °F 69.0 °F 29.92 in SE 0.4 mph 3.5 mph 71 % 0.00 in
20:47 79.1 °F 68.9 °F 29.92 in Calm   3.5 mph 71 % 0.00 in
20:57 78.9 °F 69.1 °F 29.93 in SE 0.3 mph 1.2 mph 72 % 0.00 in
21:02 78.9 °F 69.1 °F 29.93 in Calm     72 % 0.00 in
21:07 78.8 °F 69.4 °F 29.93 in SE 1.3 mph 3.5 mph 73 % 0.00 in
21:12 78.7 °F 69.3 °F 29.93 in Calm     73 % 0.00 in
21:17 78.6 °F 69.6 °F 29.93 in SE 0.3 mph 1.2 mph 74 % 0.00 in
21:22 78.4 °F 69.4 °F 29.94 in Calm   1.2 mph 74 % 0.00 in
21:27 78.3 °F 69.7 °F 29.94 in SE 0.4 mph 3.5 mph 75 % 0.00 in
21:32 78.2 °F 69.6 °F 29.94 in Calm   1.2 mph 75 % 0.00 in
21:38 78.2 °F 70.0 °F 29.94 in Calm   1.2 mph 76 % 0.00 in
21:43 78.1 °F 69.5 °F 29.94 in Calm     75 % 0.00 in
21:48 78.0 °F 69.8 °F 29.94 in SE 0.2 mph 2.3 mph 76 % 0.00 in
21:53 77.9 °F 69.7 °F 29.94 in Calm   1.2 mph 76 % 0.00 in
21:58 77.8 °F 69.6 °F 29.94 in SE 0.1 mph 1.0 mph 76 % 0.00 in
22:03 77.7 °F 69.9 °F 29.94 in Calm     77 % 0.00 in
22:08 77.6 °F 70.2 °F 29.94 in West 0.2 mph 3.5 mph 78 % 0.00 in
22:13 77.5 °F 69.7 °F 29.94 in Calm     77 % 0.00 in
22:18 77.4 °F 70.0 °F 29.95 in Calm   1.2 mph 78 % 0.00 in
22:23 77.3 °F 69.9 °F 29.95 in Calm   1.2 mph 78 % 0.00 in
22:29 77.2 °F 69.8 °F 29.95 in Calm   1.2 mph 78 % 0.00 in
22:34 77.1 °F 69.7 °F 29.94 in Calm   1.2 mph 78 % 0.00 in
22:39 77.0 °F 69.6 °F 29.95 in Calm     78 % 0.00 in
22:44 76.9 °F 69.9 °F 29.95 in Calm     79 % 0.00 in
22:49 76.8 °F 69.8 °F 29.95 in West 0.1 mph 1.0 mph 79 % 0.00 in
22:54 76.7 °F 69.7 °F 29.95 in Calm   1.2 mph 79 % 0.00 in
22:59 76.6 °F 69.6 °F 29.95 in Calm   1.2 mph 79 % 0.00 in
23:04 76.5 °F 69.5 °F 29.94 in Calm     79 % 0.00 in
23:09 76.4 °F 69.8 °F 29.94 in Calm     80 % 0.00 in
23:14 76.3 °F 69.7 °F 29.94 in Calm     80 % 0.00 in
23:20 76.2 °F 69.9 °F 29.94 in Calm     81 % 0.00 in
23:25 76.1 °F 69.5 °F 29.94 in Calm     80 % 0.00 in
23:30 76.0 °F 69.4 °F 29.94 in Calm     80 % 0.00 in
23:35 75.9 °F 69.3 °F 29.94 in Calm     80 % 0.00 in
23:40 75.8 °F 69.2 °F 29.94 in Calm     80 % 0.00 in
23:45 75.7 °F 69.5 °F 29.94 in Calm     81 % 0.00 in
23:50 75.6 °F 69.4 °F 29.94 in Calm     81 % 0.00 in
23:55 75.5 °F 69.3 °F 29.94 in Calm     81 % 0.00 in
Crab Meadow Weather
Compliments of Weather Underground - 3 mb

Script developed by  Jim McMurry - jmcmurry@mwt.net Adapted for the template by  Wim van der Kuil - Leuven-Template.eu

Extremes: The greatest annual rainfall in the United States was 184.56 inches at Wynooches, Oxbow, Washington in 1931.